Canadian, TX

8:30 PM CDT on May 20, 2018 (GMT -0500)
Hemphill County

Weather History for KHHF - March, 2013

Change the Weather History Date:

Thursday, March 7, 2013

  Actual Average (KPPA) Record (KPPA)
Temperature  
Mean Temperature 56 °F -  
Max Temperature 75 °F 61 °F 83 °F (1972)
Min Temperature 36 °F 29 °F 7 °F (1989)
Degree Days  
Heating Degree Days 10    
Growing Degree Days 6 (Base 50)    
Moisture  
Dew Point 24 °F    
Average Humidity 34    
Maximum Humidity 53    
Minimum Humidity 16    
Precipitation  
Precipitation 0.00 in - - ()
Sea Level Pressure  
Sea Level Pressure 29.97 in    
Wind  
Wind Speed 11 mph (South)    
Max Wind Speed 25 mph    
Max Gust Speed 33 mph    
Visibility 10 miles    
Events      
Averages and records for this station are not official NWS values.
T = Trace of Precipitation, MM = Missing Value Source: NWS Daily Summary

Daily Weather History Graph

Daily Weather History Graph

Search for Another Location

Airport or City:

Astronomy

Mar. 07, 2013 Rise Set
Actual Time 7:03 AM CST 6:42 PM CST
Civil Twilight 6:37 AM CST 7:07 PM CST
Nautical Twilight 6:08 AM CST 7:37 PM CST
Astronomical Twilight 5:38 AM CST 8:07 PM CST
Moon 3:57 AM CST (3/7) 2:38 PM CST (3/7)
Length of Visible Light 12h 30m
Length of Day
11h 39m
Waning Crescent, 20% of the Moon is Illuminated
Mar 7
Waning Crescent
Mar 11
New
Mar 19
First Quarter
Mar 27
Full
Apr 2
Last Quarter

Hourly Weather History & Observations

Time (CST) Temp. Windchill Dew Point Humidity Pressure Visibility Wind Dir Wind Speed Gust Speed Precip Events Conditions
12:15 AM 43.3 °F 37.2 °F 20.3 °F 40% 30.04 in 10.0 mi SSE 11.5 mph 19.6 mph N/A   Clear
12:35 AM 43.3 °F 41.7 °F 19.6 °F 39% 30.04 in 10.0 mi South 3.5 mph - N/A   Clear
12:55 AM 43.7 °F 42.1 °F 19.2 °F 38% 30.04 in 10.0 mi South 3.5 mph - N/A   Clear
1:15 AM 42.8 °F 38.0 °F 19.4 °F 39% 30.03 in 10.0 mi South 8.1 mph - N/A   Clear
1:35 AM 43.2 °F 37.0 °F 19.4 °F 39% 30.03 in 10.0 mi South 11.5 mph - N/A   Clear
1:55 AM 42.6 °F 37.2 °F 19.4 °F 39% 30.03 in 10.0 mi South 9.2 mph - N/A   Clear
2:15 AM 41.9 °F 39.0 °F 19.0 °F 40% 30.03 in 10.0 mi South 4.6 mph - N/A   Clear
2:35 AM 42.6 °F 37.8 °F 18.5 °F 38% 30.02 in 10.0 mi South 8.1 mph - N/A   Clear
2:55 AM 41.9 °F 36.3 °F 18.9 °F 40% 30.01 in 10.0 mi South 9.2 mph - N/A   Clear
3:15 AM 41.2 °F 35.5 °F 19.0 °F 41% 30.00 in 10.0 mi SSW 9.2 mph - N/A   Clear
3:35 AM 40.3 °F 36.3 °F 19.6 °F 44% 29.99 in 10.0 mi SSW 5.8 mph - N/A   Clear
3:55 AM 39.2 °F 35.0 °F 19.8 °F 46% 29.98 in 10.0 mi SSW 5.8 mph - N/A   Clear
4:15 AM 38.1 °F - 20.1 °F 48% 29.99 in 10.0 mi Calm Calm - N/A   Clear
4:35 AM 38.5 °F 33.4 °F 20.3 °F 48% 29.98 in 10.0 mi SSW 6.9 mph - N/A   Clear
4:55 AM 38.5 °F 35.0 °F 20.3 °F 48% 29.99 in 10.0 mi South 4.6 mph - N/A   Clear
5:15 AM 38.3 °F - 20.7 °F 49% 29.99 in 10.0 mi Calm Calm - N/A   Clear
5:35 AM 37.8 °F 34.2 °F 20.8 °F 51% 29.98 in 10.0 mi South 4.6 mph - N/A   Clear
5:55 AM 37.4 °F 32.1 °F 21.0 °F 52% 29.98 in 10.0 mi South 6.9 mph - N/A   Clear
6:15 AM 36.9 °F 30.1 °F 21.2 °F 53% 29.98 in 10.0 mi South 9.2 mph - N/A   Clear
6:35 AM 37.0 °F 30.4 °F 21.2 °F 53% 29.99 in 10.0 mi South 9.2 mph - N/A   Clear
6:55 AM 37.4 °F 30.3 °F 21.2 °F 52% 29.98 in 10.0 mi South 10.4 mph - N/A   Clear
7:15 AM 37.0 °F 33.3 °F 21.2 °F 53% 30.00 in 10.0 mi South 4.6 mph - N/A   Clear
7:35 AM 37.4 °F 30.3 °F 21.4 °F 52% 30.00 in 10.0 mi SSW 10.4 mph - N/A   Clear
7:55 AM 38.8 °F 32.1 °F 21.4 °F 50% 30.01 in 10.0 mi SSW 10.4 mph - N/A   Clear
8:15 AM 40.6 °F 33.0 °F 21.4 °F 46% 30.01 in 10.0 mi SSW 13.8 mph - N/A   Clear
8:35 AM 42.8 °F 36.2 °F 21.2 °F 42% 30.01 in 10.0 mi SSW 12.7 mph - N/A   Clear
8:55 AM 45.5 °F 38.9 °F 21.4 °F 38% 30.01 in 10.0 mi SSW 15.0 mph - N/A   Clear
9:15 AM 48.0 °F - 22.1 °F 36% 30.01 in 10.0 mi SSW 11.5 mph - N/A   Clear
9:35 AM 50.0 °F - 22.1 °F 33% 30.01 in 10.0 mi South 16.1 mph - N/A   Clear
9:55 AM 51.6 °F - 22.6 °F 32% 30.00 in 10.0 mi South 17.3 mph - N/A   Clear
10:15 AM 53.1 °F - 23.4 °F 32% 30.01 in 10.0 mi South 15.0 mph - N/A   Clear
10:35 AM 55.2 °F - 23.9 °F 30% 30.00 in 10.0 mi South 13.8 mph - N/A   Clear
10:55 AM 57.9 °F - 23.9 °F 27% 29.99 in 10.0 mi South 13.8 mph 17.3 mph N/A   Clear
11:15 AM 59.5 °F - 24.3 °F 26% 29.99 in 10.0 mi South 15.0 mph - N/A   Clear
11:35 AM 61.5 °F - 24.4 °F 24% 29.98 in 10.0 mi SSW 13.8 mph - N/A   Clear
11:55 AM 64.4 °F - 25.2 °F 23% 29.98 in 10.0 mi South 13.8 mph 19.6 mph N/A   Clear
12:15 PM 66.6 °F - 25.0 °F 21% 29.98 in 10.0 mi SSW 11.5 mph - N/A   Clear
12:35 PM 68.2 °F - 25.0 °F 20% 29.97 in 10.0 mi South 12.7 mph 19.6 mph N/A   Clear
12:55 PM 69.8 °F - 25.2 °F 19% 29.96 in 10.0 mi South 15.0 mph 20.7 mph N/A   Clear
1:15 PM 70.5 °F - 25.2 °F 18% 29.96 in 10.0 mi South 16.1 mph 20.7 mph N/A   Clear
1:35 PM 71.1 °F - 24.4 °F 17% 29.95 in 10.0 mi South 17.3 mph 23.0 mph N/A   Clear
1:55 PM 72.3 °F - 25.0 °F 17% 29.94 in 10.0 mi South 16.1 mph 24.2 mph N/A   Clear
2:15 PM 72.5 °F - 24.6 °F 17% 29.92 in 10.0 mi South 19.6 mph 24.2 mph N/A   Clear
2:35 PM 73.8 °F - 24.8 °F 16% 29.92 in 10.0 mi South 16.1 mph 20.7 mph N/A   Clear
2:55 PM 74.7 °F - 25.2 °F 16% 29.91 in 10.0 mi South 16.1 mph 21.9 mph N/A   Clear
3:15 PM 75.2 °F - 25.5 °F 16% 29.91 in 10.0 mi South 18.4 mph 23.0 mph N/A   Clear
3:35 PM 75.0 °F - 25.7 °F 16% 29.91 in 10.0 mi South 24.2 mph 27.6 mph N/A   Clear
3:55 PM 74.7 °F - 25.5 °F 16% 29.90 in 10.0 mi South 23.0 mph 28.8 mph N/A   Clear
4:15 PM 74.5 °F - 25.5 °F 16% 29.90 in 10.0 mi South 23.0 mph 29.9 mph N/A   Clear
4:35 PM 74.7 °F - 25.3 °F 16% 29.90 in 10.0 mi South 20.7 mph 25.3 mph N/A   Clear
4:55 PM 72.7 °F - 24.8 °F 17% 29.89 in 10.0 mi South 20.7 mph 26.5 mph N/A   Clear
5:15 PM 71.8 °F - 24.6 °F 17% 29.89 in 10.0 mi South 23.0 mph 26.5 mph N/A   Clear
5:35 PM 70.3 °F - 24.1 °F 18% 29.90 in 10.0 mi South 18.4 mph 26.5 mph N/A   Clear
5:55 PM 69.6 °F - 25.2 °F 19% 29.91 in 10.0 mi South 19.6 mph 27.6 mph N/A   Clear
7:35 PM 62.4 °F - 26.6 °F 26% 29.94 in 10.0 mi South 15.0 mph 20.7 mph N/A   Clear
7:55 PM 61.9 °F - 27.3 °F 27% 29.94 in 10.0 mi South 16.1 mph 21.9 mph N/A   Clear
8:15 PM 61.7 °F - 29.1 °F 29% 29.95 in 10.0 mi South 13.8 mph - N/A   Clear
8:35 PM 61.3 °F - 30.9 °F 32% 29.94 in 10.0 mi South 19.6 mph 23.0 mph N/A   Clear
8:55 PM 61.7 °F - 31.8 °F 33% 29.93 in 10.0 mi South 24.2 mph 29.9 mph N/A   Clear
9:15 PM 60.8 °F - 32.0 °F 34% 29.93 in 10.0 mi South 19.6 mph 26.5 mph N/A   Clear
9:35 PM 60.3 °F - 32.0 °F 34% 29.93 in 10.0 mi South 21.9 mph 29.9 mph N/A   Clear
9:55 PM 60.3 °F - 32.2 °F 35% 29.93 in 10.0 mi South 23.0 mph 28.8 mph N/A   Clear
10:15 PM 60.4 °F - 32.9 °F 36% 29.94 in 10.0 mi South 23.0 mph 29.9 mph N/A   Clear
10:35 PM 60.3 °F - 33.6 °F 37% 29.94 in 10.0 mi South 25.3 mph 33.4 mph N/A   Clear
10:55 PM 59.0 °F - 33.8 °F 39% 29.95 in 10.0 mi South 20.7 mph 32.2 mph N/A   Clear
11:15 PM 58.3 °F - 35.6 °F 43% 29.94 in 10.0 mi South 19.6 mph 29.9 mph N/A   Clear
11:35 PM 58.8 °F - 37.4 °F 45% 29.95 in 10.0 mi South 20.7 mph 27.6 mph N/A   Clear
11:55 PM 59.0 °F - 38.3 °F 46% 29.96 in 10.0 mi South 17.3 mph 23.0 mph N/A   Clear